Record,Date/Time,10,Freq,Rcvr,Alpha,dTdG,K1,K2,K3,K4,Tnd
     1,09/06/2018 00:04:29,11, 22.000,0, 0.991350,  -844460.12,  0.58119308E+02, -0.79629008E+00,  0.34688593E-02, -0.48762250E-05, 557.98
     2,09/06/2018 00:04:29,11, 22.234,0, 0.988600,  -859163.64,  0.16963225E+03, -0.18064790E+01,  0.64727204E-02, -0.77948716E-05, 532.01
     3,09/06/2018 00:04:29,11, 22.500,0, 0.989440,  -735759.52, -0.60753803E+02,  0.75644278E+00, -0.30581988E-02,  0.40419827E-05, 525.63
     4,09/06/2018 00:04:29,11, 23.000,0, 0.990510,  -732704.57, -0.52299980E+02,  0.50596756E+00, -0.15647991E-02,  0.15240064E-05, 520.17
     5,09/06/2018 00:04:29,11, 23.034,0, 0.993550,  -761305.96,  0.96582442E+00, -0.61400641E-01,  0.42436067E-03, -0.77282262E-06, 520.19
     6,09/06/2018 00:04:29,11, 23.500,0, 0.994090,  -692139.64,  0.15771328E+03, -0.15568503E+01,  0.51718224E-02, -0.57885503E-05, 535.57
     7,09/06/2018 00:04:29,11, 23.834,0, 0.996550,  -858313.81, -0.80449531E+02,  0.84880926E+00, -0.29350649E-02,  0.33266556E-05, 533.18
     8,09/06/2018 00:04:29,11, 24.000,0, 0.997230,  -851086.56, -0.13409321E+03,  0.13941080E+01, -0.47591391E-02,  0.53321370E-05, 534.58
     9,09/06/2018 00:04:29,11, 24.500,0, 0.996580,  -824699.02,  0.13452103E+03, -0.14189523E+01,  0.49765804E-02, -0.58040624E-05, 536.74
    10,09/06/2018 00:04:29,11, 25.000,0, 0.996350,  -923562.60, -0.17242473E+02,  0.17981533E+00, -0.56956290E-03,  0.53287412E-06, 529.39
    11,09/06/2018 00:04:29,11, 25.500,0, 0.993220,  -895786.70,  0.25763080E+03, -0.28012526E+01,  0.10073357E-01, -0.11990523E-04, 535.17
    12,09/06/2018 00:04:29,11, 26.000,0, 0.991800, -1102914.90,  0.65668828E+02, -0.62432547E+00,  0.20089754E-02, -0.21964522E-05, 589.29
    13,09/06/2018 00:04:29,11, 26.234,0, 0.992130,  -973355.32, -0.29228565E+03,  0.30662972E+01, -0.10632168E-01,  0.12186838E-04, 606.20
    14,09/06/2018 00:04:29,11, 26.500,0, 0.991860,  -800824.28, -0.10509399E+03,  0.98099979E+00, -0.29570094E-02,  0.28409751E-05, 629.60
    15,09/06/2018 00:04:29,11, 27.000,0, 0.992850,  -100000.00, -0.12169533E+02,  0.10255986E+00, -0.32215578E-03,  0.39035937E-06, 706.26
    16,09/06/2018 00:04:29,11, 27.500,0, 1.000740,  -100000.00, -0.45217490E+03,  0.47007462E+01, -0.16176458E-01,  0.18426283E-04, 643.04
    17,09/06/2018 00:04:29,11, 28.000,0, 0.999610,  -100000.00,  0.49443799E+02, -0.55707875E+00,  0.21777151E-02, -0.29126574E-05, 631.42
    18,09/06/2018 00:04:29,11, 28.500,0, 0.996720,  -623354.92, -0.25742523E+03,  0.27545829E+01, -0.97239858E-02,  0.11332297E-04, 545.84
    19,09/06/2018 00:04:29,11, 29.000,0, 0.992110,  -648191.99, -0.51842744E+02,  0.51822030E+00, -0.16504621E-02,  0.16549559E-05, 525.04
    20,09/06/2018 00:04:29,11, 29.500,0, 0.985470,  -746631.99, -0.84277251E+02,  0.96632590E+00, -0.36029594E-02,  0.43893405E-05, 535.32
    21,09/06/2018 00:04:29,11, 30.000,0, 0.986560,  -808792.62, -0.11830811E+03,  0.11585092E+01, -0.37429999E-02,  0.39823990E-05, 551.36
Record,Date/Time,30,TkBB(K),Tnd(K) Ch  22.000,R Ch  22.000,Tnd(K) Ch  22.234,R Ch  22.234,Tnd(K) Ch  22.500,R Ch  22.500,Tnd(K) Ch  23.000,R Ch  23.000,Tnd(K) Ch  23.034,R Ch  23.034,Tnd(K) Ch  23.500,R Ch  23.500,Tnd(K) Ch  23.834,R Ch  23.834,Tnd(K) Ch  24.000,R Ch  24.000,Tnd(K) Ch  24.500,R Ch  24.500,Tnd(K) Ch  25.000,R Ch  25.000,Tnd(K) Ch  25.500,R Ch  25.500,Tnd(K) Ch  26.000,R Ch  26.000,Tnd(K) Ch  26.234,R Ch  26.234,Tnd(K) Ch  26.500,R Ch  26.500,Tnd(K) Ch  27.000,R Ch  27.000,Tnd(K) Ch  27.500,R Ch  27.500,Tnd(K) Ch  28.000,R Ch  28.000,Tnd(K) Ch  28.500,R Ch  28.500,Tnd(K) Ch  29.000,R Ch  29.000,Tnd(K) Ch  29.500,R Ch  29.500,Tnd(K) Ch  30.000,R Ch  30.000
Record,Date/Time,20,TkBB(K),Tnd(K) Ch  1,R Ch  1,Tnd(K) Ch  2,R Ch  2,Tnd(K) Ch  3,R Ch  3,Tnd(K) Ch  4,R Ch  4,Tnd(K) Ch  5,R Ch  5
    22,09/06/2018 00:06:54,31,315.183, 551.576, 0.995340, 525.781, 0.996129, 520.475, 0.995798, 511.616, 0.996053, 512.953, 0.995701, 530.073, 0.996050, 526.996, 0.996079, 529.164, 1.000000, 532.336, 0.996751, 524.842, 0.996600, 529.887, 0.996948, 585.746, 0.996487, 607.093, 0.995476, 631.958, 0.997228, 711.203, 0.996212, 638.279, 0.995923, 621.271, 0.994970, 534.799, 0.996350, 513.413, 0.996544, 522.646, 0.996955, 540.512, 0.995759
    23,09/06/2018 00:09:10,31,315.160, 551.872, 0.995901, 526.982, 0.996151, 520.516, 0.996176, 513.444, 0.996192, 514.214, 0.995915, 532.490, 0.996264, 528.179, 0.996008, 530.429, 1.000000, 533.361, 0.996422, 526.731, 0.996487, 532.590, 0.996360, 587.353, 0.996237, 606.376, 0.994502, 634.373, 0.996072, 710.476, 0.995500, 640.394, 0.995194, 623.216, 0.995336, 537.567, 0.995050, 515.111, 0.995570, 524.301, 0.995864, 543.582, 0.996154
    24,09/06/2018 00:11:26,31,315.192, 552.062, 0.996295, 526.238, 0.996343, 521.416, 0.996359, 513.345, 0.996100, 513.980, 0.996471, 530.188, 0.996512, 528.819, 0.996121, 529.108, 1.000000, 533.332, 0.996035, 525.244, 0.996419, 531.612, 0.997478, 586.079, 0.996788, 605.803, 0.995840, 632.720, 0.996533, 710.003, 0.996980, 639.520, 0.996337, 621.356, 0.996027, 536.366, 0.995939, 514.198, 0.995757, 522.945, 0.996853, 542.021, 0.996492
    25,09/06/2018 00:13:43,31,315.204, 553.432, 0.993636, 527.077, 0.994533, 519.212, 0.995146, 512.229, 0.993999, 512.794, 0.994200, 530.015, 0.995375, 527.079, 0.994326, 528.957, 1.000000, 531.869, 0.995224, 525.450, 0.994387, 530.950, 0.995559, 586.078, 0.994472, 605.169, 0.993028, 632.747, 0.994546, 711.969, 0.994541, 639.427, 0.993648, 621.346, 0.993661, 536.245, 0.992361, 513.129, 0.993194, 523.323, 0.994537, 542.203, 0.994572
    26,09/06/2018 00:15:58,31,315.159, 554.861, 0.993523, 529.199, 0.994112, 522.942, 0.994680, 516.592, 0.994225, 517.006, 0.994109, 531.080, 0.994579, 530.138, 0.993935, 532.091, 1.000000, 533.841, 0.994534, 525.437, 0.994331, 532.180, 0.994831, 586.868, 0.994512, 608.048, 0.992813, 634.482, 0.993786, 713.664, 0.992436, 640.515, 0.993140, 623.853, 0.992914, 536.998, 0.992435, 514.958, 0.993255, 523.005, 0.993929, 543.275, 0.994156
    27,09/06/2018 00:18:14,31,315.178, 552.383, 0.995453, 528.676, 0.995974, 522.540, 0.996099, 513.613, 0.996451, 515.941, 0.995701, 530.768, 0.996233, 528.368, 0.995623, 528.682, 1.000000, 533.229, 0.996462, 525.268, 0.996062, 531.541, 0.997047, 585.994, 0.996807, 607.023, 0.995839, 632.119, 0.996675, 710.822, 0.996076, 638.561, 0.994823, 621.848, 0.995594, 535.114, 0.995425, 513.293, 0.995839, 522.693, 0.996055, 541.263, 0.995950
    28,09/06/2018 00:20:31,31,315.228, 552.875, 0.991560, 527.090, 0.991876, 522.086, 0.992253, 512.577, 0.991764, 515.694, 0.991547, 531.822, 0.992151, 528.810, 0.991289, 530.811, 1.000000, 533.634, 0.991837, 526.056, 0.990435, 531.649, 0.991734, 587.058, 0.991139, 608.569, 0.989654, 633.391, 0.990560, 711.621, 0.989785, 640.676, 0.989006, 622.333, 0.989404, 536.801, 0.990049, 513.649, 0.988576, 523.910, 0.990800, 542.855, 0.990267
    29,09/06/2018 00:22:47,31,315.264, 553.454, 0.995271, 527.974, 0.995833, 522.088, 0.995767, 514.563, 0.995029, 513.433, 0.995486, 532.235, 0.995633, 529.167, 0.995350, 531.799, 1.000000, 533.452, 0.995365, 526.128, 0.995502, 533.593, 0.996411, 587.054, 0.995248, 608.135, 0.993984, 634.665, 0.995510, 713.344, 0.994787, 641.719, 0.994563, 623.596, 0.994344, 536.664, 0.994147, 514.625, 0.994296, 523.926, 0.995253, 542.733, 0.995154
    30,09/06/2018 00:25:04,31,315.310, 549.992, 0.995958, 525.297, 0.996499, 517.298, 0.996468, 512.260, 0.996486, 511.295, 0.996086, 527.924, 0.996422, 525.511, 0.996302, 527.059, 1.000000, 531.527, 0.996217, 523.112, 0.996304, 529.033, 0.996685, 584.387, 0.995992, 605.231, 0.994576, 632.401, 0.996203, 710.001, 0.995104, 639.290, 0.994987, 622.289, 0.994677, 534.679, 0.994057, 513.740, 0.994916, 521.852, 0.995889, 540.891, 0.995696
    31,09/06/2018 00:27:21,31,315.319, 549.268, 0.995980, 524.983, 0.996003, 517.755, 0.996555, 511.827, 0.996024, 510.790, 0.996014, 527.916, 0.996141, 525.480, 0.995746, 526.704, 1.000000, 532.140, 0.996489, 523.239, 0.995696, 528.985, 0.996069, 583.683, 0.995310, 604.226, 0.993777, 631.010, 0.995655, 708.741, 0.994725, 636.846, 0.994874, 620.868, 0.994519, 535.227, 0.993950, 512.242, 0.993980, 521.794, 0.994925, 540.713, 0.995104
    32,09/06/2018 00:29:37,31,315.341, 552.848, 0.996577, 529.022, 0.996258, 520.818, 0.996448, 512.849, 0.995968, 513.151, 0.996259, 531.130, 0.996466, 527.932, 0.996262, 530.759, 1.000000, 533.321, 0.996916, 525.035, 0.996393, 532.590, 0.996792, 587.129, 0.996250, 607.509, 0.995209, 634.480, 0.995864, 711.677, 0.995372, 639.576, 0.995223, 622.833, 0.995145, 536.371, 0.995838, 514.886, 0.995354, 523.457, 0.996567, 543.125, 0.996359
    33,09/06/2018 00:31:54,31,315.351, 551.425, 0.995187, 525.019, 0.995258, 521.088, 0.994847, 511.399, 0.995485, 511.112, 0.995039, 528.362, 0.995910, 525.497, 0.995303, 527.662, 1.000000, 532.429, 0.995053, 525.498, 0.994911, 530.872, 0.995291, 585.617, 0.994681, 606.340, 0.992719, 633.900, 0.994823, 712.556, 0.994059, 638.809, 0.992429, 623.114, 0.992628, 537.304, 0.994124, 513.726, 0.994215, 523.149, 0.994802, 541.995, 0.995214
    34,09/06/2018 00:34:18,31,315.370, 550.808, 0.995541, 525.285, 0.995867, 518.683, 0.995777, 511.571, 0.995750, 512.924, 0.995708, 528.446, 0.996121, 527.109, 0.995465, 530.220, 1.000000, 532.641, 0.995606, 524.467, 0.995833, 530.780, 0.996449, 584.630, 0.995634, 606.080, 0.994330, 632.382, 0.995570, 711.141, 0.995276, 638.327, 0.994569, 621.707, 0.994288, 536.009, 0.994575, 513.583, 0.994320, 522.506, 0.995406, 541.253, 0.995903
    35,09/06/2018 00:36:43,31,315.404, 548.596, 0.994907, 523.763, 0.994914, 519.578, 0.995293, 511.660, 0.995518, 511.586, 0.995278, 528.621, 0.995116, 526.952, 0.995257, 527.061, 1.000000, 530.898, 0.995709, 523.616, 0.995803, 528.843, 0.995969, 583.699, 0.995590, 605.043, 0.994578, 631.727, 0.995040, 711.168, 0.995177, 636.948, 0.994775, 620.642, 0.994552, 535.749, 0.994433, 512.670, 0.994318, 522.475, 0.995175, 542.613, 0.995457
    36,09/06/2018 00:38:58,31,315.425, 558.552, 0.996429, 535.632, 0.997091, 528.061, 0.997033, 521.929, 0.996772, 520.233, 0.997119, 537.977, 0.997260, 533.631, 0.997008, 535.748, 1.000000, 538.603, 0.997254, 531.334, 0.997080, 537.565, 0.997415, 591.782, 0.996566, 613.763, 0.995468, 640.437, 0.995687, 717.740, 0.996150, 645.472, 0.996677, 626.959, 0.996226, 540.722, 0.995856, 518.202, 0.995255, 528.359, 0.996739, 547.529, 0.996619
    37,09/06/2018 00:41:14,31,315.464, 554.874, 0.997335, 528.294, 0.997858, 523.283, 0.998164, 514.658, 0.997885, 514.692, 0.998021, 532.592, 0.998319, 530.664, 0.997874, 531.835, 1.000000, 534.290, 0.998323, 526.822, 0.997879, 533.446, 0.998317, 588.127, 0.998268, 608.355, 0.997561, 636.295, 0.998447, 712.929, 0.997882, 640.115, 0.997692, 623.410, 0.997449, 538.533, 0.997236, 515.551, 0.997232, 523.935, 0.997418, 543.551, 0.998054
    38,09/06/2018 00:43:31,31,315.493, 556.297, 0.992505, 531.669, 0.993056, 525.843, 0.993456, 516.481, 0.993118, 517.991, 0.992930, 531.873, 0.992920, 530.857, 0.992399, 531.919, 1.000000, 535.107, 0.993498, 527.033, 0.992816, 533.314, 0.994412, 588.297, 0.994088, 608.280, 0.992026, 635.216, 0.992485, 713.924, 0.992084, 639.587, 0.992004, 622.397, 0.992676, 536.619, 0.992716, 514.870, 0.991943, 524.125, 0.993553, 542.973, 0.993739
    39,09/06/2018 00:45:47,31,315.528, 552.436, 0.994120, 526.806, 0.993935, 520.574, 0.994160, 513.688, 0.994046, 513.640, 0.993889, 529.312, 0.993751, 528.648, 0.993155, 529.430, 1.000000, 533.089, 0.994319, 524.521, 0.992855, 530.406, 0.994542, 584.881, 0.994194, 605.461, 0.991781, 633.456, 0.992634, 710.907, 0.992587, 638.049, 0.991673, 620.784, 0.992230, 536.057, 0.992197, 512.786, 0.991482, 522.878, 0.993121, 541.122, 0.993093
    40,09/06/2018 00:48:04,31,315.570, 550.584, 0.996899, 527.928, 0.997448, 520.671, 0.997346, 512.764, 0.997398, 512.367, 0.997507, 529.363, 0.997952, 528.545, 0.997649, 530.135, 1.000000, 531.510, 0.997990, 525.027, 0.997265, 529.688, 0.998253, 585.114, 0.997854, 606.192, 0.996886, 634.251, 0.997409, 710.897, 0.997028, 638.724, 0.997634, 620.876, 0.997097, 535.833, 0.996773, 513.349, 0.996480, 523.380, 0.997223, 542.307, 0.997498
    41,09/06/2018 00:50:19,31,315.608, 552.981, 0.992802, 526.797, 0.993327, 520.702, 0.994363, 513.586, 0.993497, 513.305, 0.994122, 527.887, 0.994056, 527.635, 0.993482, 529.141, 1.000000, 532.648, 0.994789, 524.416, 0.993911, 530.252, 0.994305, 584.523, 0.994596, 605.692, 0.993307, 632.343, 0.994065, 709.788, 0.993288, 637.558, 0.993219, 620.374, 0.992849, 536.437, 0.993333, 513.920, 0.993680, 522.133, 0.994533, 541.533, 0.994630
    42,09/06/2018 00:52:36,31,315.663, 553.948, 0.994743, 529.459, 0.994731, 522.391, 0.994661, 514.120, 0.994795, 515.399, 0.994942, 530.905, 0.995470, 529.387, 0.994736, 530.019, 1.000000, 533.361, 0.995875, 526.999, 0.995237, 531.443, 0.996329, 585.246, 0.995955, 608.683, 0.994576, 632.580, 0.994970, 711.684, 0.994734, 639.409, 0.994509, 621.767, 0.995550, 536.731, 0.994764, 514.404, 0.994758, 523.432, 0.995584, 543.335, 0.995847
    43,09/06/2018 00:54:52,31,315.667, 555.531, 0.995368, 529.299, 0.996296, 523.668, 0.996052, 514.281, 0.996100, 515.124, 0.995837, 532.577, 0.996140, 530.759, 0.995846, 531.786, 1.000000, 534.579, 0.996496, 527.354, 0.995840, 534.441, 0.997045, 586.966, 0.996251, 609.273, 0.994768, 636.241, 0.995828, 715.002, 0.995601, 640.389, 0.995175, 624.099, 0.994686, 538.000, 0.994831, 516.327, 0.993927, 525.348, 0.995471, 544.249, 0.994984
    44,09/06/2018 00:57:09,31,315.585, 552.228, 0.993604, 525.738, 0.993711, 518.974, 0.994721, 511.927, 0.994166, 513.746, 0.994349, 528.881, 0.994764, 527.574, 0.994266, 527.016, 1.000000, 531.430, 0.995112, 524.102, 0.994591, 529.228, 0.995766, 585.289, 0.994834, 604.561, 0.993744, 632.253, 0.993894, 708.983, 0.995028, 637.930, 0.994307, 620.500, 0.994639, 535.767, 0.994212, 512.563, 0.994488, 522.065, 0.995797, 540.190, 0.995855
    45,09/06/2018 00:59:25,31,315.612, 554.485, 0.998246, 526.947, 0.998617, 521.069, 0.998481, 514.662, 0.998647, 515.430, 0.998592, 531.395, 0.998729, 528.221, 0.999025, 529.696, 1.000000, 534.386, 0.998488, 526.150, 0.998574, 531.976, 0.997867, 587.061, 0.996983, 606.954, 0.996961, 634.597, 0.995683, 712.000, 0.994780, 640.245, 0.994616, 623.092, 0.993030, 537.107, 0.991833, 514.891, 0.991295, 522.874, 0.988548, 543.404, 0.986207
    46,09/06/2018 01:01:41,31,315.501, 555.663, 0.995797, 530.191, 0.995321, 522.334, 0.995633, 515.194, 0.995873, 516.274, 0.996082, 531.227, 0.996679, 530.138, 0.995331, 531.574, 1.000000, 534.922, 0.996453, 526.692, 0.996575, 532.505, 0.996451, 587.103, 0.996522, 607.153, 0.995776, 633.873, 0.996688, 711.423, 0.996300, 638.764, 0.996013, 623.328, 0.995833, 537.418, 0.995645, 513.791, 0.995600, 524.129, 0.996267, 549.222, 0.998771
    47,09/06/2018 01:03:59,31,315.522, 551.074, 0.995844, 526.067, 0.996574, 521.028, 0.996325, 513.485, 0.996390, 513.837, 0.996401, 530.226, 0.996937, 527.837, 0.996183, 529.827, 1.000000, 532.258, 0.996635, 524.769, 0.996900, 531.657, 0.997174, 585.432, 0.996589, 605.862, 0.996067, 635.023, 0.996519, 710.736, 0.996321, 637.858, 0.996469, 621.973, 0.995693, 536.065, 0.996341, 513.135, 0.995810, 522.785, 0.997254, 538.656, 0.995749
    48,09/06/2018 01:06:14,31,315.529, 551.386, 0.996935, 526.118, 0.997213, 520.827, 0.997135, 513.948, 0.997053, 514.646, 0.997310, 530.578, 0.997776, 528.435, 0.997601, 529.439, 1.000000, 533.887, 0.998278, 525.072, 0.998201, 532.450, 0.998910, 586.288, 0.998671, 606.793, 0.997741, 634.081, 0.998377, 712.512, 0.998580, 638.149, 0.998199, 621.195, 0.998703, 534.929, 0.998692, 514.270, 0.998435, 523.098, 0.999174, 541.452, 0.998610
    49,09/06/2018 01:08:30,31,315.557, 553.596, 0.994780, 527.204, 0.994509, 518.863, 0.995364, 512.496, 0.995134, 514.093, 0.995474, 530.316, 0.995742, 528.168, 0.995431, 530.715, 1.000000, 532.476, 0.996194, 524.379, 0.996051, 529.931, 0.996829, 584.189, 0.996477, 606.119, 0.995582, 632.542, 0.996192, 712.811, 0.995330, 638.233, 0.995304, 620.999, 0.995600, 536.006, 0.995589, 513.698, 0.996021, 522.556, 0.996448, 542.420, 0.996824
    50,09/06/2018 01:10:46,31,315.514, 551.322, 0.994555, 525.815, 0.995437, 520.274, 0.995537, 512.759, 0.995511, 513.706, 0.995366, 528.554, 0.995422, 528.249, 0.995214, 529.189, 1.000000, 532.998, 0.995866, 524.266, 0.994737, 530.501, 0.996211, 586.000, 0.996381, 606.196, 0.995142, 633.471, 0.994834, 710.769, 0.995772, 637.994, 0.995620, 620.892, 0.995125, 535.174, 0.994745, 513.914, 0.995480, 523.818, 0.996136, 541.336, 0.996124
    51,09/06/2018 01:13:03,31,315.531, 554.389, 0.994205, 529.277, 0.994737, 521.307, 0.994948, 515.534, 0.994982, 515.246, 0.994827, 532.224, 0.995214, 528.445, 0.995126, 530.907, 1.000000, 533.440, 0.995777, 525.754, 0.994699, 531.575, 0.995927, 584.956, 0.995802, 607.876, 0.994843, 633.700, 0.995319, 712.258, 0.995027, 639.874, 0.994110, 623.821, 0.995112, 535.995, 0.994564, 514.346, 0.994347, 523.055, 0.995028, 541.429, 0.995930
    52,09/06/2018 01:15:21,31,315.543, 548.444, 0.995448, 524.959, 0.995751, 518.534, 0.995409, 509.564, 0.995351, 511.607, 0.995285, 527.179, 0.995780, 526.318, 0.995398, 528.158, 1.000000, 530.451, 0.996483, 523.325, 0.995738, 529.755, 0.996501, 584.154, 0.995510, 605.065, 0.995163, 632.535, 0.995905, 709.332, 0.995528, 636.468, 0.994647, 620.576, 0.995348, 534.638, 0.995147, 512.717, 0.994621, 522.177, 0.995782, 541.208, 0.995610
    53,09/06/2018 01:17:37,31,315.510, 548.294, 0.996017, 523.424, 0.996260, 515.074, 0.996542, 510.948, 0.996274, 509.738, 0.996364, 527.685, 0.996809, 525.441, 0.996174, 525.905, 1.000000, 529.071, 0.996734, 523.500, 0.996429, 528.613, 0.996639, 583.313, 0.996374, 604.547, 0.994534, 631.078, 0.996152, 710.578, 0.994503, 637.349, 0.994521, 620.929, 0.994630, 534.579, 0.995382, 513.480, 0.995030, 521.584, 0.996080, 540.546, 0.996395
    54,09/06/2018 01:19:54,31,315.464, 551.739, 0.991559, 526.508, 0.991568, 520.518, 0.991784, 513.711, 0.992183, 513.366, 0.991954, 529.475, 0.993082, 528.403, 0.991822, 530.095, 1.000000, 534.136, 0.993008, 526.386, 0.992733, 530.400, 0.994106, 585.006, 0.991824, 606.226, 0.991947, 633.518, 0.991865, 711.718, 0.991166, 638.529, 0.991604, 622.027, 0.990949, 535.742, 0.990801, 513.541, 0.990688, 523.567, 0.991353, 542.412, 0.992355
    55,09/06/2018 01:22:10,31,315.476, 554.907, 0.996116, 530.038, 0.996781, 525.388, 0.996665, 516.006, 0.996377, 517.229, 0.996821, 533.672, 0.996929, 529.770, 0.996535, 533.502, 1.000000, 535.214, 0.997096, 526.952, 0.996806, 531.986, 0.997529, 587.811, 0.996256, 608.845, 0.996464, 635.069, 0.996915, 713.293, 0.996590, 639.743, 0.996612, 623.615, 0.996026, 537.980, 0.996267, 515.177, 0.995705, 523.514, 0.997037, 543.655, 0.996850
    56,09/06/2018 01:24:25,31,315.500, 550.811, 0.996271, 524.024, 0.997076, 520.039, 0.996625, 512.333, 0.996679, 512.429, 0.996419, 529.080, 0.997050, 526.837, 0.996261, 528.515, 1.000000, 531.251, 0.996924, 524.946, 0.996893, 530.883, 0.996857, 585.504, 0.996650, 606.361, 0.995073, 632.954, 0.995169, 711.182, 0.996493, 639.118, 0.995092, 622.291, 0.994677, 535.593, 0.995633, 513.706, 0.994814, 523.456, 0.996642, 542.203, 0.996324
    57,09/06/2018 01:26:41,31,315.481, 547.504, 0.994965, 522.811, 0.995171, 515.287, 0.995260, 509.545, 0.995296, 509.135, 0.995200, 527.292, 0.995693, 524.151, 0.994998, 525.850, 1.000000, 529.001, 0.995294, 522.182, 0.995217, 528.655, 0.996101, 583.243, 0.994931, 603.420, 0.994303, 629.981, 0.994689, 708.475, 0.994290, 636.905, 0.994265, 619.170, 0.993996, 534.801, 0.994291, 511.529, 0.993129, 521.219, 0.995014, 541.356, 0.995142
    58,09/06/2018 01:28:57,31,315.503, 547.369, 0.993333, 524.271, 0.992696, 517.015, 0.993498, 511.439, 0.992725, 510.131, 0.994125, 528.015, 0.993759, 525.941, 0.992902, 526.523, 1.000000, 531.265, 0.994270, 521.818, 0.993768, 530.396, 0.994429, 583.158, 0.993813, 604.489, 0.993078, 630.492, 0.993457, 708.378, 0.994428, 637.288, 0.992796, 620.350, 0.992451, 535.637, 0.992766, 512.837, 0.991837, 522.410, 0.992960, 541.019, 0.994044
    59,09/06/2018 01:31:12,31,315.500, 552.376, 0.996548, 528.819, 0.996300, 521.804, 0.996945, 513.307, 0.996706, 515.117, 0.996564, 530.449, 0.996900, 528.627, 0.996856, 529.345, 1.000000, 533.440, 0.997040, 526.191, 0.996539, 530.092, 0.997692, 586.129, 0.997325, 606.955, 0.996310, 632.763, 0.996803, 711.580, 0.996069, 638.828, 0.996023, 622.069, 0.995564, 536.702, 0.996222, 513.354, 0.995413, 522.680, 0.996322, 543.444, 0.996244
    60,09/06/2018 01:33:29,31,315.495, 553.330, 0.997463, 526.834, 0.997994, 519.847, 0.998009, 510.892, 0.997773, 512.251, 0.997175, 530.232, 0.997855, 527.920, 0.997375, 528.742, 1.000000, 532.242, 0.997699, 524.298, 0.997691, 530.848, 0.998099, 586.553, 0.997620, 606.326, 0.996351, 633.672, 0.997458, 710.727, 0.997091, 638.821, 0.996545, 622.406, 0.996634, 535.893, 0.997100, 512.948, 0.996648, 523.525, 0.997103, 541.650, 0.998269
    61,09/06/2018 01:35:45,31,315.514, 549.895, 0.994921, 525.029, 0.995334, 518.197, 0.995220, 511.156, 0.995407, 512.033, 0.995218, 528.634, 0.995135, 526.565, 0.995107, 528.343, 1.000000, 532.586, 0.996010, 524.834, 0.995594, 529.926, 0.995842, 584.152, 0.994796, 605.491, 0.994496, 631.831, 0.994922, 710.773, 0.994967, 637.834, 0.994479, 621.039, 0.994533, 535.277, 0.994620, 513.572, 0.994460, 523.076, 0.995145, 541.407, 0.995104
    62,09/06/2018 01:38:02,31,315.528, 553.238, 0.993704, 527.086, 0.993298, 521.708, 0.994033, 514.780, 0.993512, 514.796, 0.993652, 531.093, 0.994338, 527.591, 0.993994, 530.052, 1.000000, 534.158, 0.994094, 527.395, 0.993613, 531.470, 0.994918, 586.078, 0.993853, 607.829, 0.992792, 633.568, 0.994030, 713.084, 0.993988, 639.990, 0.993070, 621.920, 0.993051, 536.741, 0.993493, 514.388, 0.993487, 523.490, 0.994029, 541.984, 0.994943
    63,09/06/2018 01:40:18,31,315.510, 547.514, 0.991533, 522.265, 0.992487, 515.547, 0.992480, 509.160, 0.992302, 507.902, 0.992263, 525.765, 0.993084, 523.949, 0.992693, 526.557, 1.000000, 528.430, 0.993059, 522.893, 0.992668, 527.659, 0.993724, 582.798, 0.993164, 602.814, 0.991191, 632.049, 0.992605, 708.987, 0.991509, 635.904, 0.990895, 619.151, 0.991350, 534.385, 0.992488, 511.977, 0.991627, 520.551, 0.992948, 540.197, 0.992756
    64,09/06/2018 01:42:34,31,315.549, 550.882, 0.993441, 525.237, 0.993313, 518.784, 0.993865, 509.585, 0.993347, 511.100, 0.993197, 526.061, 0.993908, 526.109, 0.993008, 527.858, 1.000000, 530.763, 0.993508, 523.443, 0.992733, 529.226, 0.993786, 582.977, 0.993674, 605.330, 0.991772, 631.526, 0.991408, 708.790, 0.992272, 636.405, 0.990743, 620.439, 0.990417, 535.400, 0.990980, 512.143, 0.991672, 521.857, 0.992134, 540.016, 0.991235
    65,09/06/2018 01:44:52,31,315.585, 551.197, 0.996792, 526.481, 0.997335, 521.164, 0.997550, 512.830, 0.997585, 513.997, 0.997355, 530.601, 0.997521, 529.131, 0.997390, 528.508, 1.000000, 533.172, 0.997905, 524.826, 0.997299, 530.747, 0.997957, 584.705, 0.997387, 606.202, 0.996444, 633.759, 0.997681, 711.314, 0.997226, 637.841, 0.996517, 621.618, 0.996877, 535.700, 0.996107, 512.649, 0.996118, 522.619, 0.997139, 540.917, 0.997811
    66,09/06/2018 01:47:08,31,315.620, 552.478, 0.992581, 528.481, 0.993053, 523.099, 0.993198, 514.408, 0.992817, 515.475, 0.993440, 531.752, 0.993947, 528.801, 0.993209, 530.622, 1.000000, 533.629, 0.994197, 525.417, 0.994216, 531.587, 0.994861, 586.915, 0.994367, 606.979, 0.992808, 634.220, 0.993741, 710.569, 0.993735, 639.277, 0.993620, 622.959, 0.992672, 536.251, 0.993040, 514.294, 0.993077, 523.252, 0.994948, 542.536, 0.994724
    67,09/06/2018 01:49:24,31,315.610, 552.882, 0.995774, 527.938, 0.996129, 523.297, 0.996368, 514.618, 0.996267, 515.643, 0.996383, 531.971, 0.996778, 528.434, 0.996344, 531.330, 1.000000, 533.764, 0.997401, 525.760, 0.996756, 531.302, 0.997385, 587.076, 0.997211, 608.297, 0.996549, 634.512, 0.997237, 712.339, 0.996837, 639.139, 0.996585, 621.880, 0.996470, 537.416, 0.996708, 513.378, 0.996608, 522.647, 0.997040, 542.150, 0.996148